www.pogodaiklimat.ru

Погода и климат >> Архив погоды >> Россия >> Красноярский край >> Туруханск


ПОГОДА в Туруханске

АРХИВ ПОГОДЫ в Туруханске

Время (UTC), дата Ветер
(напр.,м/с)
 
Видим.   Явления Облачность Т
(С)
Тd
(С)
f
(%)
Тe
(С)
Тes
(С)
Комфортность P
(гПа)
Po
(гПа)
Тmin
(С)
Tmax
(С)
R
(мм)
R24
(мм)
S
(см)
03 13.11 С 1 10 км слабый снег 9/6 600 м
[Sc Cs]
-22.1 -25.4 74 -25 -25 1028.8 1023.0
06 13.11 С 1 10 км слабый снег 9/4 600 м
[Sc Cs]
-20.7 -24.0 75 -24 -24 1029.3 1023.5
09 13.11 СВ 2 20 км {снег} 8/3 600 м
[Sc Ci fib]
-22.2 -25.5 74 -28 -28 1030.6 1024.8
12 13.11 СВ 1 20 км {снег} 6/3 600 м
[Sc Ci fib]
-26.2 -29.4 74 -30 -30 1031.5 1025.5 -20.6 0.2
15 13.11 В 2 20 км 6/3 1000 м
[Sc Ci fib]
-26.1 -29.3 74 -33 -33 опасность
обморожения
1032.0 1026.1
18 13.11 СВ 2 20 км 4/0
[Ci fib]
-26.8 -30.0 74 -34 -34 опасность
обморожения
1032.6 1026.6
21 13.11 СВ 2 20 км 4/0
[Ci fib]
-27.6 -30.7 75 -35 -35 опасность
обморожения
1033.3 1027.3
00 14.11 СВ 2 20 км 4/0
[Ci fib]
-27.8 -31.0 74 -35 -35 опасность
обморожения
1033.8 1027.8 -29.6 41
03 14.11 СВ 1 50 км ясно -28.5 -32.4 69 -32 -32 опасность
обморожения
1034.2 1028.1
06 14.11 В 2 50 км ясно -27.2 -31.1 69 -34 -34 опасность
обморожения
1034.6 1028.6
09 14.11 СВ 1 50 км ясно -27.8 -31.7 69 -32 -32 опасность
обморожения
1035.6 1029.5
12 14.11 СВ 2 20 км ясно -29.3 -33.1 70 -37 -37 опасность
обморожения
1036.1 1030.0 -27.0
15 14.11 СВ 2 20 км ясно -30.2 -33.9 70 -38 -38 опасность
обморожения
1035.9 1029.8
18 14.11 СВ 1 20 км ясно -31.0 -34.8 69 -35 -35 опасность
обморожения
1036.4 1030.3
21 14.11 СВ 1 20 км ясно -32.4 -36.2 69 -37 -37 опасность
обморожения
1036.8 1030.7
00 15.11 СВ 1 20 км 5/0
[Ac trans]
-31.5 -35.2 70 -36 -36 опасность
обморожения
1036.9 1030.8 -32.4 40
03 15.11 В 1 20 км 8/3 1000 м
[Sc Ac trans]
-30.6 -34.4 69 -35 -35 опасность
обморожения
1037.0 1030.9
06 15.11 В 1 20 км 9/3 1000 м
[Sc Ac trans]
-28.2 -32.1 69 -32 -32 опасность
обморожения
1036.9 1030.8
09 15.11 В 1 10 км слабый снег 10/8 1000 м
[Sc Cs]
-26.7 -29.9 74 -30 -30 1036.6 1030.6
12 15.11 Ю 2 10 км слабый снег 10/5 1000 м
[Sc Cs]
-24.9 -28.1 75 -32 -32 опасность
обморожения
1036.7 1030.7 -24.7 0.2
15 15.11 Ю 3 10 км слабый снег 10/8 600 м
[Sc Cs]
-24.0 -27.2 75 -32 -32 опасность
обморожения
1035.8 1029.8
18 15.11 Ю 2 10 км слабый снег 9/8 600 м
[Sc Cs]
-23.6 -26.9 74 -30 -30 1035.1 1029.1
21 15.11 Ю 4 10 км слабый ливневой снег 10/10 300 м
[Cb cap]
-23.5 -26.8 74 -33 -33 опасность
обморожения
1034.0 1028.0
00 16.11 ЮВ 2 4000 м слабый ливневой снег 10/10 300 м
[Cb cap]
-23.2 -26.4 75 -30 -30 1032.7 1026.7 -25.5 0.7 40
03 16.11 Ю 3 4000 м слабый ливневой снег 10/8 300 м
[Cb cap As op]
-21.7 -24.9 75 -30 -30 1031.2 1025.3
06 16.11 ЮВ 3 4000 м слабый ливневой снег {метель} 10/6 300 м
[Cb cap Ac As]
-19.7 -23.8 70 -27 -27 1029.5 1023.7
09 16.11 ЮВ 3 10 км слабый ливневой снег {метель} 10/4 300 м
[Cb cap Cs]
-17.9 -22.0 70 -25 -25 1027.5 1021.7
12 16.11 ЮВ 3 10 км слабый снег {ливн. осадки} 10/0
[Cs]
-16.2 -21.3 65 -23 -23 1025.2 1019.5 -16.0 0.7
15 16.11 В 3 10 км слабый снег {метель} 10/10 1000 м
[Sc]
-16.5 -19.9 75 -23 -23 1023.8 1018.1
18 16.11 В 3 4000 м слабый снег {метель} 10/10 1000 м
[Sc]
-17.6 -21.0 75 -25 -25 1023.2 1017.4
21 16.11 В 4 4000 м слабый снег {метель} 10/10 1000 м
[Sc]
-18.5 -21.8 75 -27 -27 1023.1 1017.3
00 17.11 В 3 4000 м слабый снег {метель} 10/10 1000 м
[Sc]
-19.2 -22.5 75 -27 -27 1023.4 1017.6 -19.6 2 41
03 17.11 В 4 4000 м слабый снег {метель} 9/8 600 м
[Sc Cs]
-19.5 -23.6 70 -28 -28 1023.3 1017.5
06 17.11 В 3 10 км слабый снег {метель} 9/5 600 м
[Sc Ac trans Cs]
-19.3 -23.4 70 -27 -27 1023.0 1017.2
09 17.11 В 2 10 км слабый снег {метель} 9/5 600 м
[Sc Ac trans Cs]
-19.3 -23.4 70 -25 -25 1023.3 1017.5
12 17.11 В 4 10 км слабый снег {метель} 9/8 600 м
[Sc Cs]
-18.8 -22.9 70 -27 -27 1023.3 1017.5 -18.6 0.2
15 17.11 В 4 10 км слабый снег {метель} 10/10 600 м
[Sc]
-19.2 -23.3 70 -28 -28 1023.0 1017.2
18 17.11 В 4 4000 м слабый снег {метель} 10/10 600 м
[Sc]
-19.2 -23.3 70 -28 -28 1022.7 1016.9
21 17.11 В 3 10 км слабый снег {метель} 10/10 600 м
[Sc]
-19.0 -23.1 70 -26 -26 1022.4 1016.6
00 18.11 В 4 4000 м слабый снег {метель} 10/10 600 м
[Sc]
-19.2 -23.3 70 -28 -28 1022.2 1016.4 -19.4 0.2 40
03 18.11 В 3 20 км в посл. час снег {метель} 9/8 600 м
[Sc Cs]
-19.2 -24.1 65 -27 -27 1021.8 1016.0
06 18.11 В 3 20 км {снег, метель} 8/8 600 м
[Sc]
-19.3 -24.2 65 -27 -27 1021.2 1015.4
09 18.11 В 2 20 км 6/6 600 м
[Sc]
-20.6 -25.5 65 -27 -27 1021.2 1015.4
12 18.11 В 3 20 км позёмок {метель} 6/6 600 м
[Sc]
-21.3 -26.1 65 -29 -29 1020.2 1014.5 -19.0 0.0
15 18.11 В 4 20 км ледяные иглы {снег, метель} 4/4 600 м
[Sc]
-22.0 -26.9 64 -31 -31 опасность
обморожения
1018.3 1012.6
18 18.11 В 4 20 км ледяные иглы {снег, метель} 6/4 600 м
[Sc Ci fib]
-21.5 -26.3 65 -31 -31 опасность
обморожения
1016.8 1011.1
21 18.11 В 4 10 км слабый снег {метель} 9/6 600 м
[Sc Cs]
-20.7 -25.6 65 -30 -30 1015.1 1009.4
00 19.11 В 3 10 км слабый снег {метель} 9/3 600 м
[Sc Cs]
-20.5 -24.6 70 -28 -28 1013.6 1007.9 -22.0 0.6 39
03 19.11 В 3 10 км слабый снег {метель} 10/10 600 м
[Sc]
-19.5 -23.6 70 -27 -27 1011.8 1006.1
06 19.11 СВ 1 10 км слабый снег {метель} 9/8 600 м
[Sc Cs]
-19.1 -22.4 75 -22 -22 1011.1 1005.4
09 19.11 С 2 10 км слабый снег 9/6 600 м
[Sc Cs]
-19.0 -22.3 75 -25 -25 1011.6 1005.9
12 19.11 С 2 10 км слабый снег 9/6 600 м
[Sc Cs]
-20.0 -22.6 80 -26 -26 1012.6 1006.9 -18.8 0.5
15 19.11 СЗ 2 4000 м слабый снег 10/10 600 м
[Sc]
-20.9 -24.2 75 -27 -27 1013.7 1008.0
18 19.11 С 1 10 км слабый снег 9/6 600 м
[Sc Cs]
-23.2 -26.4 75 -27 -27 1015.2 1009.3
21 19.11 СЗ 2 20 км {снег} 8/4 600 м
[Sc Ci fib]
-26.3 -29.4 75 -33 -33 опасность
обморожения
1017.7 1011.8
00 20.11 З 1 20 км ледяные иглы {снег} 4/3 600 м
[Sc Ci fib]
-29.6 -33.3 70 -34 -34 опасность
обморожения
1019.4 1013.4 -29.6 0.3 41

 

Местоположение метеостанции Туруханск (Красноярский край, Россия): широта 65.78 долгота 87.93 высота над уровнем моря 38 м.

В архиве по умолчанию представлена погода в Туруханске за последнюю неделю. Архивные данные за месяц целиком и за предыдущие месяцы, начиная с января 2011 года, Вы можете получить, выбрав интересующий диапазон дат из раскрывающегося списка и нажав кнопку "Ввод!".

Внимание! Время в таблицах - всемирное. Для получения местного времени необходимо прибавить поправку, которая в Туруханске равна 7 ч.

Смотрите также архив погоды в соседних городах и на ближайших метеорологических станциях:

Погода в Курейке (Красноярский край, Россия) (83 км)
Погода в Большом Пороге (Эвенкия, Россия) (98 км)
Погода в Светлогорске (Красноярский край, Россия) (132 км)
Погода в Янов Стане (Красноярский край, Россия) (168 км)
Погода в Верещагино (Красноярский край, Россия) (174 км)
Погода в Горбиачине (Красноярский край, Россия) (189 км)
Погода в Игарке (Красноярский край, Россия) (197 км)
Погода в Советской Речке (Красноярский край, Россия) (218 км)
Погода в Красноселькупске (Ямало-Ненецкий АО, Россия) (251 км)
Погода в Снежногорске (Красноярский край, Россия) (258 км)

Пояснения к столбцам:

Ветер - указаны скорость ветра в м/с - средняя за 10 мин, порывы в срок и между сроками (в фигурных скобках) и направление, откуда дует ветер: С - северный, СВ - северо-восточный, В - восточный, ЮВ - юго-восточный, Ю - южный, ЮЗ - юго-западный, З - западный, СЗ - северо-западный.
Видимость - горизонтальная дальность видимости в метрах или километрах. При видимости от 1 до 10 км при отсутствии осадков обычно наблюдается дымка, при ухудшении видимости до 1 км и менее - туман. В сухую погоду видимость может ухудшаться дымом, пылью или мглою.
Явления - указаны атмосферные явления, наблюдавшиеся в срок или в последний час перед сроком; фигурными скобками обозначены явления, наблюдавшиеся между сроками (за 1-3 часа до срока); квадратными скобками обозначены град или гололедные отложения с указанием их диаметра в мм.
Облачность - указаны через наклонную черту общая и нижняя облачность в баллах и высота нижней границы облаков в метрах; квадратными скобками обозначены формы облаков: Ci - перистые, Cs - перисто-слоистые, Cc - перисто-кучевые, Ac - высококучевые, As - высокослоистые, Sc - слоисто-кучевые, Ns - слоисто-дождевые, Cu - кучевые, Cb - кучево-дождевые. Подробнее классификацию облаков см. в Атласе облаков (PDF).
T - Температура воздуха - температура, измеренная на высоте 2 м над землей.
Td - Температура точки росы - температура, при понижении до которой содержащийся в воздухе водяной пар достигнет насыщения.
f - Относительная влажность воздуха - влажноcть воздуха, измеренная на высоте 2 м над землей.
Te - Эффективная температура - температура, которую ощущает одетый по сезону человек в тени. Характеристика душности погоды. При расчете учитывается влияние влажности воздуха и скорости ветра на теплоощущения человека.
Tes - Эффективная температура на солнце - температура, которую ощущает человек, с поправкой на солнечный нагрев. Характеристика знойности погоды. Зависит от высоты солнца над горизонтом, облачности и скорости ветра. Ночью, в пасмурную погоду, а также при ветре 12 м/с и более поправка равна нулю.
P - Атмосферное давление - приведенное к уровню моря атмосферное давление.
Po - Атмосферное давление - измеренное на уровне метеостанции атмосферное давление.
Tmin - Минимальная температура - минимум температуры воздуха на высоте 2 м над землей.
Tmax - Максимальная температура - максимум температуры воздуха на высоте 2 м над землей.
R - Количество осадков - Количество выпавших осадков за период времени, мм. При наведении курсора мыши на число - период времени, за который выпало указанное количество осадков.
R24 - Количество осадков - Количество выпавших осадков за 24 часа, мм.
S - Снежный покров - Высота снежного покрова, см. При наведении курсора мыши на число - состояние снежного покрова и степень покрытия местности в баллах.